NOAA 16 DEB, 41290

Orbit data source: Space-Track

NOAA 16 DEB, 41290 is space debris in SSO originally from a launch on Thu, 21 Sep 2000 UTC launched from the Air Force Western Test Range (AFWTR). Debris objects in space refer to the collection of defunct objects orbiting the Earth. Examples of debris include non-operational satellites, rocket bodies, and fragments generated from explosions, collisions, or faulty payload assembly.

Loading next visibility...
Identifier
41290, 2000-055GS
Orbit
SSO
Country
Flag of USUS
Related business
Manufacturer
Unknown
Mission
Spacecraft
Bus & Motor
Unknown
Mass
Unknown
Launch date (UTC)
2000-09-21 (26 years ago)
Launch vehicle
Unknown
Launch site
Air Force Western Test Range (AFWTR)
Object type
Payload
Rocket body
Debris
Shape & HBR
Unknown shape, 0.1 m
Radar Cross Section
Small (<0.1 m²)

Expand to show TLE details & history
Last TLE update: 18 hours ago

TLE from 18 hours ago
0 NOAA 16 DEB
1 41290U 00055GS  26106.64042631  .00008503  00000-0  13844-2 0  9995
2 41290  99.0053 348.3123 0012362 298.4696  61.5262 14.71257576537693
Epoch: 2026-04-16T15:22Z
TLE epoch observation values (Epoch: 2026-04-16T15:22:12.833Z)
Latitude
Longitude
-87.02624°
Altitude
655.892 km
Speed
7.532 km/s
True Right ascension
23h 13m 14s
True Declination
0° 00' 00"
Sunlit
Object was in daylight at epoch
Visualization orbit readout
Latitude
Unknown
Longitude
Unknown
Altitude
Unknown
Speed
Unknown
Apparent Right ascension
Unknown
Apparent Declination
Unknown
Sunlit
N/A
Visualization observer readout
Local Sidereal Time
15:55:01
Azimuth
Unknown
Elevation
Unknown
Doppler factor
Unknown
Orbital elements
Apogee altitude
662.855 km
Perigee altitude
645.468 km
Semi-major axis
7,032.298 km
Eccentricity
0.00124
Inclination
99.0053°
RAAN
348.3123°
Arg. of periapsis
298.4696°
True anomaly
61.65081°
Mean anomaly
61.5262°
Eccentric anomaly
61.5885°
Mean motion
3.68042 °/min
Orbital period
97.81 mins
BSTAR
0.0013844
Loading maneuver chart data...
Computing Atmospheric mass density...
Loading historical data...
Loading historical data...
Loading historical data...
Loading historical data...
Loading historical data...
Loading historical data...
Loading historical data...

Documentation

Showing up to 5 results
|